Simultaneous Nadir Overpasses (SNOs) Predictions

Prediction of SNOs between METOP-C and LANDSAT-8 Satellite Orbit:

Table of predicted SNOs for the next 14.0 days since TLE Epoch: 7/9/2022
Index Date (METOP-C) Time (METOP-C) Lat,Lon (METOP-C) SZA (METOP-C ) Date (LANDSAT-8) Time (LANDSAT-8) Lat,Lon (LANDSAT-8) SZA (LANDSAT-8 ) Distance(km) Time Diff (sec)
1 07/09/2022 06:41:23 81.18, 120.59 60.95 07/09/2022 06:42:10 81.18, 120.42 60.96 2.84 47
2 07/09/2022 07:32:04 -81.19, -71.77 119.01 07/09/2022 07:31:36 -81.20, -71.66 119.00 1.87 28
3 07/12/2022 02:15:45 81.17,-173.34 61.26 07/12/2022 02:16:24 81.17,-173.24 61.29 1.77 39
4 07/12/2022 03:06:25 -81.19, -5.31 118.65 07/12/2022 03:05:50 -81.19, -5.29 118.66 0.36 35
5 07/14/2022 21:50:06 81.18,-106.53 61.72 07/14/2022 21:50:38 81.18,-106.60 61.72 1.16 32
6 07/14/2022 22:40:46 -81.20, 61.49 118.20 07/14/2022 22:40:04 -81.20, 61.38 118.23 1.87 42
7 07/17/2022 17:24:29 81.17, -40.51 62.12 07/17/2022 17:24:53 81.17, -40.39 62.14 1.93 24
8 07/17/2022 18:15:09 -81.19, 127.49 117.79 07/17/2022 18:14:19 -81.19, 127.60 117.80 1.93 50
9 07/20/2022 12:58:50 81.18, 26.25 62.67 07/20/2022 12:59:07 81.17, 26.11 62.65 2.59 17



Historial Predications of SNOs between METOP-C and LANDSAT-8
